Tracking 17884 objects as of 3-December-2016
HD Live streaming from Space Station
objects crossing your sky now

IRIDIUM 76

Track IRIDIUM 76 now!
10-day predictions
IRIDIUM 76 is classified as:


NORAD ID: 25432
Int'l Code: 1998-048B
Perigee: 783.3 km
Apogee: 786.3 km
Inclination: 86.4 °
Period: 100.4 minutes
Semi major axis: 7155 km
RCS: 4.1166 m2 (large)
Launch date: August 19, 1998
Source: United States (US)
Launch site: Taiyaun Space Center, China (TSC)

Spare; stored in 667 km storage orbit, not raised to 780 km operational orbit until needed
Your satellite tracking list
Your tracking list is empty





NASA's NSSDC Master Catalog

Two Line Element Set (TLE):
1 25432U 98048B   16337.47864961 -.00000049  00000-0 -24412-4 0  9992
2 25432  86.3940 337.7128 0002095  82.3425  29.0607 14.34217035957408
Source of the keplerian elements: AFSPC